GW0118 Weather Reports


time (UTC)temp
F
wind
direction
speed
knots
gust
knots
rain 1hr
in
rain 24hr
in
rain mn
in
humidity
%
barometer
mb
20260509194558 50 0 0.0 2.6 0.00 0.17 0.17 91 1012.0
20260509193111 50 135 0.0 0.9 0.00 0.17 0.17 90 1011.9
20260509191608 50 0 0.0 2.6 0.00 0.17 0.17 89 1011.8
20260509190100 51 150 0.0 1.7 0.00 0.17 0.17 87 1011.7
20260509184601 51 233 1.7 4.3 0.03 0.17 0.17 85 1011.7
20260509183100 50 228 0.9 4.3 0.07 0.17 0.17 86 1011.7
20260509181558 50 254 2.6 7.0 0.07 0.17 0.17 85 1011.5
20260509180106 51 257 5.2 8.7 0.07 0.16 0.16 85 1011.7
20260509174622 52 233 5.2 13.0 0.05 0.14 0.14 86 1011.8
20260509173100 53 225 6.1 11.3 0.01 0.10 0.10 83 1011.1
20260509171600 54 248 7.8 13.0 0.01 0.10 0.10 81 1010.8
20260509170109 56 252 5.2 10.4 0.00 0.08 0.08 78 1010.9
20260509164600 58 270 6.1 10.4 0.00 0.08 0.08 73 1010.5
20260509163101 59 160 5.2 13.0 0.00 0.08 0.08 71 1010.3
20260509161602 58 248 1.7 7.0 0.00 0.08 0.08 74 1010.2
20260509160058 57 157 1.7 8.7 0.01 0.08 0.08 79 1010.3
20260509154600 55 120 0.9 4.3 0.02 0.09 0.08 83 1010.7
20260509153117 53 118 1.7 3.5 0.04 0.09 0.08 88 1011.1
20260509151600 51 147 0.9 6.1 0.08 0.09 0.08 90 1011.6
20260509150058 51 283 5.2 17.4 0.07 0.07 0.07 89 1011.9
20260509144600 52 235 6.1 15.6 0.06 0.18 0.06 88 1011.7
20260509143059 54 234 15.6 26.9 0.03 0.15 0.03 81 1011.0
20260509141557 61 243 5.2 13.9 0.00 0.11 0.00 54 1010.3
20260509134557 63 130 3.5 13.9 0.00 0.16 0.00 52 1010.2
20260509133100 63 234 5.2 16.5 0.00 0.16 0.00 54 1010.2
20260509131600 63 188 6.1 15.6 0.00 0.16 0.00 54 1010.4
20260509130108 62 236 7.0 13.0 0.00 0.16 0.00 49 1010.6
20260509124601 62 120 6.1 20.0 0.00 0.18 0.00 54 1010.7
20260509123058 62 243 7.0 16.5 0.00 0.18 0.00 55 1010.8
20260509121625 61 281 5.2 13.0 0.00 0.18 0.00 56 1010.7
20260509120059 61 155 2.6 11.3 0.00 0.18 0.00 58 1010.6
20260509114604 60 188 3.5 11.3 0.00 0.18 0.00 61 1010.7
20260509113101 59 240 2.6 7.8 0.00 0.18 0.00 62 1010.9
20260509111559 59 247 1.7 7.8 0.00 0.18 0.00 64 1011.1
20260509110108 58 288 4.3 11.3 0.00 0.18 0.00 68 1011.2
20260509104559 59 0 2.6 7.0 0.00 0.18 0.00 65 1011.3
20260509103103 58 236 2.6 6.1 0.00 0.18 0.00 67 1011.3
20260509101619 57 0 1.7 5.2 0.00 0.18 0.00 69 1011.1
20260509100058 56 228 1.7 5.2 0.00 0.18 0.00 72 1011.2
20260509094609 55 157 1.7 5.2 0.00 0.18 0.00 73 1011.3
20260509093100 54 136 2.6 8.7 0.00 0.18 0.00 75 1011.3
20260509091607 54 272 1.7 5.2 0.00 0.18 0.00 76 1011.4
20260509090106 53 141 0.9 6.1 0.00 0.18 0.00 77 1011.1
20260509084603 52 252 3.5 7.0 0.00 0.18 0.00 80 1010.9
20260509083108 51 246 1.7 6.1 0.00 0.18 0.00 81 1010.8
20260509081559 50 258 1.7 6.1 0.00 0.18 0.00 83 1010.4
20260509080100 50 117 0.9 7.8 0.00 0.18 0.00 84 1010.6
20260509074600 50 102 0.9 7.0 0.00 0.18 0.00 83 1010.8
20260509073057 50 117 1.7 9.6 0.00 0.18 0.00 84 1010.9
20260509071604 50 247 3.5 11.3 0.00 0.18 0.00 85 1011.2
20260509070100 49 182 0.9 8.7 0.00 0.18 0.00 87 1011.3
20260509064610 49 153 0.0 5.2 0.00 0.18 0.00 88 1011.7
20260509063106 49 118 0.0 1.7 0.00 0.18 0.00 89 1011.6
20260509061610 48 56 1.7 3.5 0.00 0.18 0.00 89 1011.8
20260509060109 48 0 0.0 0.9 0.00 0.18 0.00 89 1011.8
20260509054613 48 0 0.0 1.7 0.00 0.18 0.00 88 1011.7
20260509053135 48 245 0.9 7.0 0.00 0.18 0.00 88 1011.4
20260509051606 49 131 0.9 5.2 0.00 0.18 0.00 86 1010.9
20260509050107 49 102 0.9 2.6 0.00 0.18 0.00 87 1010.6
20260509044659 48 0 0.9 4.3 0.00 0.18 0.00 88 1010.9
20260509043140 48 0 0.0 1.7 0.00 0.18 0.00 88 1011.0
20260509041605 49 0 0.0 0.9 0.00 0.18 0.00 88 1010.9
20260509034600 49 259 0.0 1.7 0.00 0.18 0.00 88 1011.4
20260509033111 49 179 0.0 1.7 0.00 0.18 0.00 89 1011.5
20260509031612 49 0 0.0 2.6 0.00 0.18 0.00 89 1011.3
20260509030114 49 0 0.0 3.5 0.00 0.18 0.00 89 1011.4
20260509024603 49 66 0.0 2.6 0.00 0.18 0.00 89 1011.5
20260509023100 49 42 0.0 5.2 0.00 0.18 0.00 89 1011.5
20260509021602 49 125 0.0 4.3 0.00 0.18 0.00 89 1011.7
20260509020107 50 124 0.0 5.2 0.00 0.18 0.00 89 1011.5
20260509014600 50 0 0.9 3.5 0.00 0.18 0.00 89 1011.8
20260509013101 50 108 0.9 4.3 0.00 0.18 0.00 89 1012.1
20260509011601 49 143 0.9 5.2 0.00 0.18 0.00 90 1012.1
20260509010057 49 91 0.0 1.7 0.00 0.18 0.00 90 1012.4
20260509004608 49 0 0.0 0.9 0.00 0.18 0.00 89 1012.6
20260509003101 49 0 0.0 2.6 0.00 0.18 0.00 89 1012.6
20260509001557 49 169 0.9 4.3 0.00 0.18 0.00 90 1012.5
20260509000105 49 152 0.0 5.2 0.00 0.18 0.00 90 1012.5
20260508234558 49 0 0.0 2.6 0.00 0.18 0.00 91 1012.7
20260508233100 49 0 0.0 2.6 0.00 0.18 0.00 91 1012.8
20260508231559 48 0 0.0 0.9 0.00 0.18 0.00 92 1012.8
20260508230058 48 116 0.0 0.9 0.00 0.18 0.00 92 1012.9
20260508224635 48 129 0.9 4.3 0.00 0.18 0.00 92 1012.9
20260508223101 48 76 1.7 3.5 0.00 0.18 0.00 93 1013.1
20260508221559 47 94 0.0 1.7 0.00 0.18 0.00 93 1013.0
20260508220058 47 117 0.9 2.6 0.00 0.18 0.00 93 1013.1
20260508214600 47 122 0.0 0.9 0.00 0.18 0.18 93 1013.1
20260508213057 47 79 0.9 1.7 0.00 0.18 0.18 92 1013.1
20260508211602 48 0 0.0 2.6 0.00 0.18 0.18 92 1013.1
20260508210100 48 0 0.0 0.0 0.00 0.18 0.18 92 1012.9
20260508204600 49 136 0.9 1.7 0.00 0.18 0.18 91 1013.0
20260508203108 49 0 0.0 0.9 0.00 0.18 0.18 91 1012.8
20260508201605 50 113 0.0 0.9 0.00 0.18 0.18 91 1012.7
20260508200059 50 0 0.0 0.9 0.00 0.18 0.18 90 1012.6